This is the latest recevied weather packets stored in our database for station/object YC0ACE-13. If no packets are shown the sender has not sent any weather packets the latest 1 day(s).
| Time | Temp. | Humidity | Pressure | Rain* | Wind** | Luminosity | Snow |
|---|---|---|---|---|---|---|---|
| 1778063125 | 30.56° C | 75% | 1011.9 hPa | 0 mm | - | 10 W/m² | - |
| 1778061626 | 31.11° C | 73% | 1011.9 hPa | 0 mm | - | 51 W/m² | - |
| 1778061325 | 31.11° C | 73% | 1011.9 hPa | 0 mm | - | 61 W/m² | - |
| 1778060124 | 31.67° C | 71% | 1011.9 hPa | 0 mm | - | 104 W/m² | - |
| 1778059825 | 31.67° C | 71% | 1011.9 hPa | 0 mm | - | 112 W/m² | - |
| 1778059225 | 31.67° C | 70% | 1011.5 hPa | 0 mm | - | 138 W/m² | - |
| 1778058925 | 31.67° C | 70% | 1011.5 hPa | 0 mm | - | 159 W/m² | - |
| 1778058628 | 31.67° C | 69% | 1011.5 hPa | 0 mm | - | 171 W/m² | - |
| 1778057425 | 32.22° C | 67% | 1011.5 hPa | 0 mm | - | 173 W/m² | - |
| 1778057126 | 32.22° C | 68% | 1011.5 hPa | 0 mm | - | 261 W/m² | - |
| 1778056530 | 32.22° C | 68% | 1011.5 hPa | 0 mm | - | 302 W/m² | - |
| 1778056224 | 32.22° C | 68% | 1011.5 hPa | 0 mm | - | 255 W/m² | - |
| 1778055925 | 32.22° C | 68% | 1011.5 hPa | 0 mm | - | 268 W/m² | - |
| 1778055625 | 31.67° C | 69% | 1011.2 hPa | 0 mm | - | 231 W/m² | - |
| 1778055025 | 32.22° C | 70% | 1011.2 hPa | 0 mm | - | 187 W/m² | - |
| 1778054724 | 32.22° C | 69% | 1011.2 hPa | 0 mm | - | 162 W/m² | - |
| 1778054424 | 32.22° C | 69% | 1011.2 hPa | 0 mm | - | 119 W/m² | - |
| 1778053825 | 32.22° C | 69% | 1011.5 hPa | 0 mm | - | 151 W/m² | - |
| 1778053524 | 32.22° C | 69% | 1011.2 hPa | 0 mm | - | 341 W/m² | - |
| 1778053225 | 32.22° C | 70% | 1011.5 hPa | 0 mm | - | 242 W/m² | - |
| 1778052624 | 32.78° C | 69% | 1011.5 hPa | 0 mm | - | 216 W/m² | - |
| 1778052324 | 32.78° C | 68% | 1011.2 hPa | 0 mm | - | 245 W/m² | - |
| 1778052027 | 32.78° C | 69% | 1011.5 hPa | 0 mm | - | 489 W/m² | - |
| 1778051425 | 31.67° C | 70% | 1011.5 hPa | 0 mm | - | 335 W/m² | - |
| 1778050525 | 31.67° C | 71% | 1011.5 hPa | 0 mm | - | 208 W/m² | - |
* Rain latest hour (hover to see other rain measurements)
** Current wind speed in m/s (hover to see current wind gust speed)